#timestamp,LO_Frequency,Hit,StdDev 
1645142415.4,286046988.8,P
1645142435.2,286046992.2,N
1645142455.1,286046992.3,N
1645142456.0,286046992.3,N
1645142475.8,286046993.2,N
1645142495.6,286046988.5,Y
1645142515.5,286047001.2,P
1645142535.3,286046999.5,N
1645142555.2,286046998.5,N
1645142575.9,286047004.0,N
1645142595.7,286047001.6,N
1645142615.6,286047001.2,N
1645142635.4,286046999.9,N
1645142655.2,286047001.0,N
1645142675.1,286046996.5,N
1645142676.0,286046996.5,N
1645142695.8,286046992.3,N
1645142715.7,286046996.1,N
1645142735.5,286047002.8,N
1645142755.3,286047002.9,N
1645142775.2,286047001.5,N
1645142795.0,286046999.8,N
1645142795.9,286046999.8,N
1645142815.7,286047003.7,N
1645142835.6,286047003.2,N
1645142855.4,286047003.6,N
1645142875.3,286046999.0,N
1645142895.1,286046993.6,N
1645142896.0,286046993.6,N
1645142915.8,286046998.3,N
1645142935.7,286046997.5,N
1645142955.5,286046992.0,N
1645142975.3,286046996.4,N
1645142995.2,286046994.7,N
1645143015.0,286046996.2,N
1645143015.9,286046996.2,N
1645143035.8,286046999.0,N
1645143055.6,286047005.5,N
1645143075.4,286047005.9,N
1645143095.3,286047005.9,N
1645143115.1,286047008.4,N
1645143135.8,286047011.7,N
1645143155.7,286047009.4,N
1645143175.5,286047014.9,N
1645143195.4,286047017.9,Y
1645143215.2,286047021.4,P
1645143235.1,286047019.7,N
1645143236.0,286047019.7,N
1645143255.8,286047020.6,N
1645143275.6,286047019.2,N
1645143295.5,286047017.8,N
1645143315.3,286047019.7,N
1645143335.2,286047018.5,N
1645143355.9,286047023.9,Y
1645143375.7,286047004.6,P
1645143395.6,286047005.7,N
1645143415.4,286047005.7,N
1645143435.3,286047001.4,N
1645143455.1,286047002.6,N
1645143456.0,286047002.6,N
1645143475.8,286047000.2,N
1645143495.7,286046997.3,N
1645143515.5,286046998.1,N
1645143535.3,286047000.7,N
1645143555.2,286046999.7,N
1645143575.0,286046998.0,N
1645143575.9,286046998.0,N
1645143595.8,286046994.3,N
1645143615.6,286046992.4,N
1645143635.4,286046985.6,N
1645143655.3,286046985.0,N
1645143675.1,286046981.8,N
1645143695.8,286046978.5,N
1645143715.7,286046977.7,N
1645143735.5,286046974.4,N
1645143755.4,286046971.3,N
1645143775.2,286046969.9,N
1645143795.0,286046974.6,N
1645143795.9,286046974.6,N
1645143815.8,286046972.1,N
1645143835.6,286046970.7,N
1645143855.4,286046970.0,N
1645143875.3,286046966.8,N
1645143895.1,286046967.0,N
1645143915.9,286046965.9,N
1645143935.7,286046963.7,N
1645143955.5,286046965.4,N
1645143975.4,286046965.1,N
1645143995.2,286046964.7,N
1645144015.0,286046969.8,N
1645144016.0,286046969.8,N
1645144035.8,286046969.4,N
1645144055.6,286046973.9,N
1645144075.5,286046980.4,N
1645144095.3,286046980.4,N
1645144115.1,286046975.6,N
1645144135.9,286046973.4,Y
1645144155.7,286046995.0,P
1645144175.6,286046990.7,N
1645144195.4,286046998.4,N
1645144215.2,286046998.1,N
1645144235.1,286046997.3,N
1645144236.0,286046997.3,N
1645144255.8,286047002.0,N
1645144275.7,286047005.3,N
1645144295.5,286047006.3,N
1645144315.3,286047005.7,N
1645144335.2,286046999.9,N
1645144355.0,286047003.5,N
1645144355.9,286047003.5,N
1645144375.8,286047008.5,N
1645144395.6,286047001.4,N
1645144415.4,286047000.9,N
1645144435.3,286046997.2,N
1645144455.1,286046998.2,N
1645144475.8,286047002.3,N
1645144495.7,286047001.8,N
1645144515.5,286047005.8,N
1645144535.4,286047004.3,N
1645144555.2,286047000.7,N
1645144575.0,286046996.9,N
1645144575.9,286046996.9,N
1645144595.8,286046995.8,N
1645144615.6,286046996.0,N
1645144635.5,286046992.2,N
1645144655.3,286046988.9,N
1645144675.1,286046988.4,N
1645144695.9,286046985.1,N
1645144715.7,286046984.6,N
1645144735.5,286046979.1,Y
1645144755.4,286046984.2,P
1645144775.2,286046989.1,N
1645144795.1,286046986.8,N
1645144796.0,286046986.8,N
1645144815.8,286046985.0,N
1645144835.6,286046985.8,N
1645144855.5,286046985.1,Y
1645144875.3,286046999.6,P
1645144895.2,286046998.6,N
1645144915.9,286047002.7,N
1645144935.7,286047000.1,N
1645144955.6,286047002.9,N
1645144975.4,286046999.2,N
1645144995.2,286046994.9,N
1645145015.1,286046995.2,N
1645145016.0,286046995.2,N
1645145035.8,286046991.8,N
1645145055.7,286046998.3,N
1645145075.5,286046995.1,N
1645145095.3,286046997.7,N
1645145115.2,286046996.9,N
1645145135.0,286046991.0,N
1645145135.9,286046991.0,N
1645145155.7,286046993.0,N
1645145175.6,286046989.7,N
1645145195.4,286046990.6,N
1645145215.3,286046992.5,N
1645145235.1,286046991.5,N
1645145236.0,286046991.5,N
1645145255.8,286046992.0,N
1645145275.7,286046994.4,N
1645145295.5,286046991.9,N
1645145315.3,286046994.0,N
1645145335.2,286046994.1,N
1645145355.0,286046994.8,N
1645145355.9,286046994.8,N
1645145375.8,286046997.4,N
1645145395.6,286046994.8,N
1645145415.4,286046990.8,N
1645145435.3,286046985.4,Y
1645145455.1,286046994.6,P
1645145475.8,286046998.3,P
1645145495.7,286046999.1,N
1645145515.5,286046997.7,N
1645145535.4,286046996.6,N
1645145555.2,286046996.9,N
1645145575.0,286047002.3,N
1645145575.9,286047002.3,N
1645145595.8,286047001.0,N
1645145615.6,286047001.6,N
1645145635.4,286047002.3,N
1645145655.3,286047001.8,N
1645145675.1,286047000.5,N
1645145695.9,286047002.2,N
1645145715.7,286047001.0,N
1645145735.5,286046996.1,N
1645145755.4,286046995.9,N
1645145775.2,286046996.4,N
1645145795.0,286046991.9,N
1645145795.9,286046991.9,N
1645145815.8,286046999.0,N
1645145835.6,286047000.9,N
1645145855.5,286047007.6,N
1645145875.3,286047003.9,N
1645145895.1,286047001.2,N
1645145915.9,286046999.4,N
1645145935.7,286046999.4,N
1645145955.6,286047000.7,N
1645145975.4,286047001.3,N
1645145995.2,286047000.4,N
